| time (UTC) | temp C | wind direction | speed KPH | gust KPH | rain 1hr cm | rain 24hr cm | rain mn cm | humidity % | barometer mb |
| 20260901132025 | 22 | 114 | 4.8 | 11.3 | 0.00 | 0.00 | 0.00 | 72 | 1014.6 |
| 20260901131543 | 22 | 134 | 4.8 | 9.7 | 0.00 | 0.00 | 0.00 | 73 | 1014.5 |
| 20260901131024 | 22 | 108 | 3.2 | 6.4 | 0.00 | 0.00 | 0.00 | 74 | 1014.6 |
| 20260901130530 | 21 | 126 | 3.2 | 6.4 | 0.00 | 0.00 | 0.00 | 76 | 1014.6 |
| 20260901130043 | 21 | 111 | 3.2 | 9.7 | 0.00 | 0.00 | 0.00 | 77 | 1014.5 |
| 20260901125520 | 21 | 115 | 3.2 | 9.7 | 0.00 | 0.00 | 0.00 | 78 | 1014.5 |
| 20260901125025 | 20 | 116 | 4.8 | 9.7 | 0.00 | 0.00 | 0.00 | 78 | 1014.4 |
| 20260901124548 | 20 | 115 | 6.4 | 9.7 | 0.00 | 0.00 | 0.00 | 79 | 1014.4 |
| 20260901124024 | 20 | 111 | 3.2 | 9.7 | 0.00 | 0.00 | 0.00 | 79 | 1014.2 |
| 20260901123521 | 20 | 104 | 4.8 | 9.7 | 0.00 | 0.00 | 0.00 | 79 | 1014.3 |
| 20260901123046 | 20 | 108 | 4.8 | 6.4 | 0.00 | 0.00 | 0.00 | 78 | 1014.2 |
| 20260901122529 | 20 | 111 | 3.2 | 6.4 | 0.00 | 0.00 | 0.00 | 78 | 1014.1 |
| 20260901122028 | 20 | 118 | 3.2 | 4.8 | 0.00 | 0.00 | 0.00 | 78 | 1014.1 |
| 20260901121542 | 20 | 111 | 3.2 | 4.8 | 0.00 | 0.00 | 0.00 | 78 | 1014.0 |
| 20260901121025 | 20 | 108 | 3.2 | 4.8 | 0.00 | 0.00 | 0.00 | 78 | 1013.9 |
| 20260901120525 | 20 | 107 | 3.2 | 4.8 | 0.00 | 0.00 | 0.00 | 78 | 1013.8 |
| 20260901120100 | 20 | 107 | 3.2 | 4.8 | 0.00 | 0.00 | 0.00 | 78 | 1013.8 |
| 20260901115526 | 20 | 109 | 3.2 | 4.8 | 0.00 | 0.00 | 0.00 | 78 | 1013.8 |
| 20260901115028 | 20 | 105 | 3.2 | 6.4 | 0.00 | 0.00 | 0.00 | 78 | 1013.8 |
| 20260901114545 | 20 | 108 | 3.2 | 6.4 | 0.00 | 0.00 | 0.00 | 78 | 1013.8 |
| 20260901114026 | 20 | 108 | 3.2 | 6.4 | 0.00 | 0.00 | 0.00 | 78 | 1013.9 |
| 20260901113526 | 20 | 111 | 3.2 | 4.8 | 0.00 | 0.00 | 0.00 | 78 | 1013.8 |
| 20260901113054 | 20 | 112 | 1.6 | 4.8 | 0.00 | 0.00 | 0.00 | 78 | 1013.8 |
| 20260901112522 | 20 | 112 | 3.2 | 4.8 | 0.00 | 0.00 | 0.00 | 77 | 1013.8 |
| 20260901112024 | 20 | 119 | 3.2 | 4.8 | 0.00 | 0.00 | 0.00 | 77 | 1013.7 |
| 20260901111547 | 20 | 116 | 1.6 | 3.2 | 0.00 | 0.00 | 0.00 | 76 | 1013.7 |
| 20260901111024 | 20 | 116 | 1.6 | 3.2 | 0.00 | 0.00 | 0.00 | 76 | 1013.7 |
| 20260901110525 | 20 | 116 | 1.6 | 4.8 | 0.00 | 0.00 | 0.00 | 76 | 1013.7 |
| 20260901110050 | 20 | 116 | 1.6 | 4.8 | 0.00 | 0.00 | 0.00 | 76 | 1013.6 |
| 20260901105524 | 20 | 116 | 3.2 | 4.8 | 0.00 | 0.00 | 0.00 | 75 | 1013.5 |
| 20260901105024 | 20 | 116 | 3.2 | 4.8 | 0.00 | 0.00 | 0.00 | 75 | 1013.6 |
| 20260901104544 | 21 | 116 | 3.2 | 4.8 | 0.00 | 0.00 | 0.00 | 75 | 1013.6 |
| 20260901104025 | 21 | 116 | 3.2 | 4.8 | 0.00 | 0.00 | 0.00 | 75 | 1013.5 |
| 20260901103525 | 21 | 117 | 3.2 | 6.4 | 0.00 | 0.00 | 0.00 | 74 | 1013.5 |
| 20260901103054 | 21 | 111 | 3.2 | 6.4 | 0.00 | 0.00 | 0.00 | 74 | 1013.4 |
| 20260901102525 | 21 | 116 | 3.2 | 6.4 | 0.00 | 0.00 | 0.00 | 74 | 1013.4 |
| 20260901102024 | 21 | 107 | 3.2 | 9.7 | 0.00 | 0.00 | 0.00 | 74 | 1013.3 |
| 20260901101548 | 21 | 109 | 3.2 | 9.7 | 0.00 | 0.00 | 0.00 | 74 | 1013.3 |
| 20260901101122 | 21 | 112 | 4.8 | 9.7 | 0.00 | 0.00 | 0.00 | 74 | 1013.3 |
| 20260901100527 | 21 | 112 | 4.8 | 9.7 | 0.00 | 0.00 | 0.00 | 74 | 1013.3 |
| 20260901100045 | 21 | 107 | 4.8 | 6.4 | 0.00 | 0.00 | 0.00 | 73 | 1013.2 |
| 20260901095524 | 21 | 109 | 4.8 | 6.4 | 0.00 | 0.00 | 0.00 | 73 | 1013.1 |
| 20260901095024 | 21 | 115 | 3.2 | 6.4 | 0.00 | 0.00 | 0.00 | 72 | 1013.1 |
| 20260901094547 | 21 | 115 | 3.2 | 6.4 | 0.00 | 0.00 | 0.00 | 73 | 1013.1 |
| 20260901094026 | 21 | 107 | 3.2 | 6.4 | 0.00 | 0.00 | 0.00 | 73 | 1013.1 |
| 20260901093529 | 21 | 105 | 3.2 | 6.4 | 0.00 | 0.00 | 0.00 | 73 | 1013.0 |
| 20260901093052 | 21 | 101 | 3.2 | 6.4 | 0.00 | 0.00 | 0.00 | 73 | 1013.0 |
| 20260901092525 | 21 | 128 | 3.2 | 4.8 | 0.00 | 0.00 | 0.00 | 73 | 1012.9 |
| 20260901092024 | 21 | 128 | 1.6 | 4.8 | 0.00 | 0.00 | 0.00 | 73 | 1012.9 |
| 20260901091554 | 21 | 128 | 1.6 | 4.8 | 0.00 | 0.00 | 0.00 | 73 | 1013.0 |
| 20260901091023 | 21 | 128 | 3.2 | 4.8 | 0.00 | 0.00 | 0.00 | 72 | 1012.9 |
| 20260901090527 | 21 | 138 | 1.6 | 4.8 | 0.00 | 0.00 | 0.00 | 71 | 1012.9 |
| 20260901090057 | 22 | 138 | 1.6 | 4.8 | 0.00 | 0.00 | 0.00 | 71 | 1012.9 |
| 20260901085524 | 22 | 138 | 1.6 | 6.4 | 0.00 | 0.00 | 0.00 | 71 | 1012.7 |
| 20260901085024 | 22 | 139 | 1.6 | 6.4 | 0.00 | 0.00 | 0.00 | 71 | 1012.9 |
| 20260901084541 | 22 | 142 | 3.2 | 6.4 | 0.00 | 0.00 | 0.00 | 71 | 1012.7 |
| 20260901084026 | 22 | 119 | 3.2 | 6.4 | 0.00 | 0.00 | 0.00 | 70 | 1012.6 |
| 20260901083529 | 22 | 134 | 3.2 | 9.7 | 0.00 | 0.00 | 0.00 | 70 | 1012.5 |
| 20260901083042 | 22 | 117 | 3.2 | 9.7 | 0.00 | 0.00 | 0.00 | 70 | 1012.5 |
| 20260901082528 | 22 | 107 | 4.8 | 9.7 | 0.00 | 0.00 | 0.00 | 70 | 1012.5 |
| 20260901082024 | 22 | 111 | 4.8 | 9.7 | 0.00 | 0.00 | 0.00 | 70 | 1012.4 |
| 20260901081545 | 22 | 109 | 4.8 | 9.7 | 0.00 | 0.00 | 0.00 | 70 | 1012.4 |
| 20260901081028 | 22 | 117 | 4.8 | 9.7 | 0.00 | 0.00 | 0.00 | 70 | 1012.4 |
| 20260901080525 | 22 | 109 | 3.2 | 6.4 | 0.00 | 0.00 | 0.00 | 70 | 1012.4 |
| 20260901080057 | 22 | 112 | 3.2 | 6.4 | 0.00 | 0.00 | 0.00 | 69 | 1012.4 |
| 20260901075525 | 22 | 114 | 3.2 | 6.4 | 0.00 | 0.00 | 0.00 | 68 | 1012.5 |
| 20260901075024 | 22 | 119 | 1.6 | 6.4 | 0.00 | 0.00 | 0.00 | 68 | 1012.3 |
| 20260901074542 | 22 | 119 | 3.2 | 6.4 | 0.00 | 0.00 | 0.00 | 68 | 1012.5 |
| 20260901074023 | 22 | 111 | 3.2 | 6.4 | 0.00 | 0.00 | 0.00 | 68 | 1012.5 |
| 20260901073524 | 22 | 108 | 3.2 | 6.4 | 0.00 | 0.00 | 0.00 | 68 | 1012.4 |
| 20260901073043 | 23 | 111 | 3.2 | 6.4 | 0.00 | 0.00 | 0.00 | 67 | 1012.6 |
| 20260901072524 | 23 | 119 | 3.2 | 9.7 | 0.00 | 0.00 | 0.00 | 67 | 1012.6 |
| 20260901072024 | 23 | 106 | 4.8 | 9.7 | 0.00 | 0.00 | 0.00 | 67 | 1012.6 |
| 20260901071545 | 23 | 110 | 4.8 | 9.7 | 0.00 | 0.00 | 0.00 | 67 | 1012.7 |
| 20260901071024 | 23 | 109 | 4.8 | 9.7 | 0.00 | 0.00 | 0.00 | 67 | 1012.6 |
| 20260901070527 | 23 | 107 | 6.4 | 9.7 | 0.00 | 0.00 | 0.00 | 67 | 1012.4 |
| 20260901070048 | 23 | 106 | 4.8 | 9.7 | 0.00 | 0.00 | 0.00 | 66 | 1012.5 |
| 20260901065525 | 23 | 113 | 4.8 | 9.7 | 0.00 | 0.00 | 0.00 | 66 | 1012.6 |
| 20260901065024 | 23 | 109 | 6.4 | 9.7 | 0.00 | 0.00 | 0.00 | 66 | 1012.7 |
| 20260901064551 | 23 | 105 | 4.8 | 9.7 | 0.00 | 0.00 | 0.00 | 65 | 1012.7 |
| 20260901064025 | 23 | 107 | 3.2 | 6.4 | 0.00 | 0.00 | 0.00 | 64 | 1012.8 |
| 20260901063524 | 23 | 104 | 3.2 | 6.4 | 0.00 | 0.00 | 0.00 | 65 | 1012.7 |
| 20260901063053 | 23 | 109 | 3.2 | 6.4 | 0.00 | 0.00 | 0.00 | 64 | 1012.7 |
| 20260901062524 | 23 | 119 | 3.2 | 6.4 | 0.00 | 0.00 | 0.00 | 63 | 1012.8 |
| 20260901062025 | 24 | 118 | 3.2 | 6.4 | 0.00 | 0.00 | 0.00 | 62 | 1012.7 |
| 20260901061545 | 24 | 111 | 3.2 | 6.4 | 0.00 | 0.00 | 0.00 | 62 | 1012.8 |
| 20260901061024 | 24 | 113 | 3.2 | 6.4 | 0.00 | 0.00 | 0.00 | 62 | 1012.8 |
| 20260901060527 | 24 | 114 | 4.8 | 6.4 | 0.00 | 0.00 | 0.00 | 61 | 1012.8 |
| 20260901060044 | 25 | 122 | 3.2 | 6.4 | 0.00 | 0.00 | 0.00 | 60 | 1012.7 |
| 20260901055522 | 25 | 119 | 4.8 | 9.7 | 0.00 | 0.00 | 0.00 | 60 | 1012.6 |
| 20260901055025 | 25 | 112 | 4.8 | 9.7 | 0.00 | 0.00 | 0.00 | 60 | 1012.6 |
| 20260901054545 | 25 | 120 | 4.8 | 9.7 | 0.00 | 0.00 | 0.00 | 60 | 1012.6 |
| 20260901054025 | 25 | 113 | 4.8 | 9.7 | 0.00 | 0.00 | 0.00 | 59 | 1012.4 |
| 20260901053525 | 25 | 111 | 4.8 | 9.7 | 0.00 | 0.00 | 0.00 | 59 | 1012.5 |
| 20260901053050 | 25 | 109 | 4.8 | 9.7 | 0.00 | 0.00 | 0.00 | 58 | 1012.5 |
| 20260901052527 | 25 | 108 | 4.8 | 9.7 | 0.00 | 0.00 | 0.00 | 58 | 1012.7 |
| 20260901052027 | 25 | 112 | 4.8 | 9.7 | 0.00 | 0.00 | 0.00 | 57 | 1012.6 |
| 20260901051541 | 25 | 119 | 4.8 | 9.7 | 0.00 | 0.00 | 0.00 | 57 | 1012.6 |
| 20260901051024 | 26 | 109 | 6.4 | 12.9 | 0.00 | 0.00 | 0.00 | 57 | 1012.4 |
| 20260901050529 | 26 | 98 | 6.4 | 12.9 | 0.00 | 0.00 | 0.00 | 56 | 1012.5 |
| 20260901050046 | 26 | 103 | 4.8 | 11.3 | 0.00 | 0.00 | 0.00 | 56 | 1012.5 |
| 20260901045524 | 26 | 101 | 6.4 | 11.3 | 0.00 | 0.00 | 0.00 | 56 | 1012.6 |
| 20260901045026 | 26 | 107 | 8.0 | 11.3 | 0.00 | 0.00 | 0.00 | 55 | 1012.7 |
| 20260901044546 | 26 | 104 | 8.0 | 11.3 | 0.00 | 0.00 | 0.00 | 55 | 1012.7 |
| 20260901044026 | 26 | 93 | 8.0 | 11.3 | 0.00 | 0.00 | 0.00 | 54 | 1012.7 |
| 20260901043524 | 26 | 108 | 6.4 | 11.3 | 0.00 | 0.00 | 0.00 | 54 | 1012.7 |
| 20260901043044 | 27 | 109 | 6.4 | 14.5 | 0.00 | 0.00 | 0.00 | 53 | 1012.6 |
| 20260901042525 | 27 | 106 | 6.4 | 14.5 | 0.00 | 0.00 | 0.00 | 53 | 1012.4 |
| 20260901042026 | 27 | 107 | 8.0 | 14.5 | 0.00 | 0.00 | 0.00 | 53 | 1012.4 |
| 20260901041549 | 27 | 104 | 9.7 | 16.1 | 0.00 | 0.00 | 0.00 | 53 | 1012.2 |
| 20260901041024 | 27 | 107 | 9.7 | 16.1 | 0.00 | 0.00 | 0.00 | 52 | 1012.3 |
| 20260901040525 | 27 | 111 | 9.7 | 14.5 | 0.00 | 0.00 | 0.00 | 52 | 1012.2 |
| 20260901040048 | 27 | 107 | 9.7 | 14.5 | 0.00 | 0.00 | 0.00 | 52 | 1012.2 |
| 20260901035525 | 27 | 107 | 9.7 | 16.1 | 0.00 | 0.00 | 0.00 | 51 | 1012.2 |
| 20260901035023 | 27 | 360 | 9.7 | 16.1 | 0.00 | 0.00 | 0.00 | 51 | 1012.0 |
| 20260901034547 | 28 | 117 | 11.3 | 16.1 | 0.00 | 0.00 | 0.00 | 50 | 1012.0 |
| 20260901034025 | 28 | 107 | 11.3 | 16.1 | 0.00 | 0.00 | 0.00 | 50 | 1011.9 |
| 20260901033525 | 28 | 104 | 9.7 | 17.7 | 0.00 | 0.00 | 0.00 | 50 | 1011.9 |
| 20260901033048 | 28 | 103 | 11.3 | 17.7 | 0.00 | 0.00 | 0.00 | 49 | 1011.9 |
| 20260901032528 | 28 | 104 | 9.7 | 17.7 | 0.00 | 0.00 | 0.00 | 49 | 1011.8 |
| 20260901032030 | 28 | 90 | 9.7 | 17.7 | 0.00 | 0.00 | 0.00 | 49 | 1011.8 |
| 20260901031542 | 28 | 101 | 9.7 | 17.7 | 0.00 | 0.00 | 0.00 | 49 | 1011.9 |
| 20260901031022 | 28 | 95 | 9.7 | 16.1 | 0.00 | 0.00 | 0.00 | 48 | 1011.8 |
| 20260901030525 | 28 | 98 | 9.7 | 16.1 | 0.00 | 0.00 | 0.00 | 48 | 1011.8 |
| 20260901030048 | 29 | 95 | 11.3 | 16.1 | 0.00 | 0.00 | 0.00 | 48 | 1011.7 |
| 20260901025526 | 29 | 97 | 9.7 | 14.5 | 0.00 | 0.00 | 0.00 | 48 | 1011.8 |
| 20260901025026 | 29 | 101 | 9.7 | 14.5 | 0.00 | 0.00 | 0.00 | 47 | 1011.8 |
| 20260901024546 | 29 | 107 | 9.7 | 14.5 | 0.00 | 0.00 | 0.00 | 47 | 1011.6 |
| 20260901024025 | 30 | 86 | 8.0 | 14.5 | 0.00 | 0.00 | 0.00 | 47 | 1011.5 |
| 20260901023524 | 30 | 98 | 9.7 | 14.5 | 0.00 | 0.00 | 0.00 | 46 | 1011.4 |
| 20260901023044 | 30 | 96 | 9.7 | 14.5 | 0.00 | 0.00 | 0.00 | 46 | 1011.3 |
| 20260901022524 | 30 | 111 | 9.7 | 14.5 | 0.00 | 0.00 | 0.00 | 46 | 1011.3 |
| 20260901022029 | 30 | 96 | 9.7 | 14.5 | 0.00 | 0.00 | 0.00 | 46 | 1011.2 |
| 20260901021550 | 30 | 93 | 8.0 | 16.1 | 0.00 | 0.00 | 0.00 | 45 | 1011.2 |
| 20260901021025 | 30 | 101 | 11.3 | 16.1 | 0.00 | 0.00 | 0.00 | 45 | 1011.0 |
| 20260901020525 | 30 | 95 | 9.7 | 16.1 | 0.00 | 0.00 | 0.00 | 45 | 1011.0 |
| 20260901020051 | 31 | 92 | 9.7 | 16.1 | 0.00 | 0.00 | 0.00 | 44 | 1010.9 |
| 20260901015525 | 31 | 94 | 8.0 | 14.5 | 0.00 | 0.00 | 0.00 | 44 | 1010.8 |
| 20260901015025 | 31 | 90 | 8.0 | 14.5 | 0.00 | 0.00 | 0.00 | 44 | 1010.9 |
| 20260901014547 | 31 | 105 | 9.7 | 14.5 | 0.00 | 0.00 | 0.00 | 43 | 1010.8 |
| 20260901014024 | 31 | 92 | 9.7 | 14.5 | 0.00 | 0.00 | 0.00 | 43 | 1010.8 |
| 20260901013525 | 32 | 100 | 8.0 | 14.5 | 0.00 | 0.00 | 0.00 | 42 | 1010.6 |
| 20260901013100 | 32 | 96 | 8.0 | 14.5 | 0.00 | 0.00 | 0.00 | 42 | 1010.6 |
| 20260901012525 | 32 | 107 | 9.7 | 14.5 | 0.00 | 0.00 | 0.00 | 41 | 1010.6 |
| 20260901012025 | 32 | 105 | 9.7 | 14.5 | 0.00 | 0.00 | 0.00 | 40 | 1010.6 |
| 20260901011545 | 32 | 93 | 9.7 | 12.9 | 0.00 | 0.00 | 0.00 | 40 | 1010.6 |
| 20260901011025 | 33 | 103 | 8.0 | 12.9 | 0.00 | 0.00 | 0.00 | 39 | 1010.6 |
| 20260901010526 | 33 | 103 | 8.0 | 14.5 | 0.00 | 0.00 | 0.00 | 39 | 1010.5 |
| 20260901010046 | 33 | 101 | 9.7 | 14.5 | 0.00 | 0.00 | 0.00 | 38 | 1010.4 |
| 20260901005526 | 33 | 95 | 9.7 | 16.1 | 0.00 | 0.00 | 0.00 | 38 | 1010.4 |
| 20260901005025 | 33 | 103 | 9.7 | 16.1 | 0.00 | 0.00 | 0.00 | 37 | 1010.4 |
| 20260901004549 | 34 | 100 | 8.0 | 14.5 | 0.00 | 0.00 | 0.00 | 37 | 1010.4 |
| 20260901004024 | 35 | 102 | 9.7 | 16.1 | 0.00 | 0.00 | 0.00 | 37 | 1010.3 |
| 20260901003525 | 35 | 98 | 9.7 | 16.1 | 0.00 | 0.00 | 0.00 | 36 | 1010.3 |
| 20260901003044 | 35 | 98 | 11.3 | 16.1 | 0.00 | 0.00 | 0.00 | 35 | 1010.2 |
| 20260901002525 | 35 | 103 | 9.7 | 17.7 | 0.00 | 0.00 | 0.00 | 35 | 1010.3 |
| 20260901002024 | 36 | 103 | 11.3 | 17.7 | 0.00 | 0.00 | 0.00 | 34 | 1010.3 |
| 20260901001546 | 36 | 99 | 11.3 | 17.7 | 0.00 | 0.00 | 0.00 | 33 | 1010.2 |
| 20260901001026 | 36 | 103 | 11.3 | 19.3 | 0.00 | 0.00 | 0.00 | 33 | 1010.2 |
| 20260901000528 | 36 | 113 | 12.9 | 19.3 | 0.00 | 0.00 | 0.00 | 32 | 1010.2 |
| 20260901000045 | 36 | 96 | 12.9 | 20.9 | 0.00 | 0.00 | 0.00 | 32 | 1010.3 |
| 20260831235525 | 36 | 104 | 14.5 | 20.9 | 0.00 | 0.00 | 0.00 | 31 | 1010.3 |
| 20260831235028 | 37 | 94 | 11.3 | 19.3 | 0.00 | 0.00 | 0.00 | 31 | 1010.3 |
| 20260831234550 | 37 | 104 | 12.9 | 27.4 | 0.00 | 0.00 | 0.00 | 30 | 1010.3 |
| 20260831234024 | 37 | 109 | 16.1 | 27.4 | 0.00 | 0.00 | 0.00 | 30 | 1010.2 |
| 20260831233526 | 37 | 102 | 16.1 | 24.1 | 0.00 | 0.00 | 0.00 | 30 | 1010.4 |
| 20260831233053 | 37 | 100 | 14.5 | 29.0 | 0.00 | 0.00 | 0.00 | 30 | 1010.3 |
| 20260831232527 | 37 | 93 | 17.7 | 29.0 | 0.00 | 0.00 | 0.00 | 30 | 1010.3 |
| 20260831232025 | 37 | 94 | 16.1 | 29.0 | 0.00 | 0.00 | 0.00 | 30 | 1010.3 |
| 20260831231544 | 37 | 98 | 12.9 | 27.4 | 0.00 | 0.00 | 0.00 | 30 | 1010.3 |
| 20260831231030 | 38 | 103 | 14.5 | 27.4 | 0.00 | 0.00 | 0.00 | 30 | 1010.4 |
| 20260831230525 | 38 | 113 | 17.7 | 29.0 | 0.00 | 0.00 | 0.00 | 30 | 1010.3 |
| 20260831230045 | 38 | 113 | 20.9 | 30.6 | 0.00 | 0.00 | 0.00 | 30 | 1010.4 |
| 20260831225525 | 38 | 113 | 17.7 | 30.6 | 0.00 | 0.00 | 0.00 | 30 | 1010.4 |
| 20260831225030 | 38 | 124 | 20.9 | 32.2 | 0.00 | 0.00 | 0.00 | 30 | 1010.5 |
| 20260831224546 | 38 | 110 | 20.9 | 32.2 | 0.00 | 0.00 | 0.00 | 30 | 1010.4 |
| 20260831224028 | 38 | 97 | 20.9 | 32.2 | 0.00 | 0.00 | 0.00 | 30 | 1010.4 |
| 20260831223526 | 38 | 112 | 22.5 | 32.2 | 0.00 | 0.00 | 0.00 | 29 | 1010.5 |
| 20260831223053 | 38 | 113 | 19.3 | 33.8 | 0.00 | 0.00 | 0.00 | 29 | 1010.4 |
| 20260831222525 | 38 | 95 | 20.9 | 33.8 | 0.00 | 0.00 | 0.00 | 29 | 1010.5 |
| 20260831222026 | 38 | 103 | 17.7 | 32.2 | 0.00 | 0.00 | 0.00 | 29 | 1010.6 |
| 20260831221544 | 39 | 112 | 17.7 | 27.4 | 0.00 | 0.00 | 0.00 | 29 | 1010.7 |
| 20260831221024 | 38 | 92 | 17.7 | 29.0 | 0.00 | 0.00 | 0.00 | 28 | 1010.6 |
| 20260831220522 | 38 | 113 | 19.3 | 29.0 | 0.00 | 0.00 | 0.00 | 28 | 1010.6 |
| 20260831220051 | 39 | 84 | 16.1 | 29.0 | 0.00 | 0.00 | 0.00 | 28 | 1010.6 |
| 20260831215527 | 39 | 88 | 16.1 | 22.5 | 0.00 | 0.00 | 0.00 | 28 | 1010.6 |
| 20260831215025 | 39 | 97 | 14.5 | 20.9 | 0.00 | 0.00 | 0.00 | 27 | 1010.6 |
| 20260831214558 | 39 | 117 | 12.9 | 29.0 | 0.00 | 0.00 | 0.00 | 27 | 1010.7 |
| 20260831214024 | 39 | 146 | 16.1 | 29.0 | 0.00 | 0.00 | 0.00 | 26 | 1010.7 |
| 20260831213525 | 39 | 128 | 17.7 | 35.4 | 0.00 | 0.00 | 0.00 | 27 | 1010.7 |
| 20260831213043 | 39 | 105 | 16.1 | 35.4 | 0.00 | 0.00 | 0.00 | 27 | 1010.7 |
| 20260831212818 | 40 | 107 | 22.5 | 33.8 | 0.00 | 0.00 | 0.00 | 27 | 1010.7 |
| 20260831212028 | 40 | 103 | 14.5 | 29.0 | 0.00 | 0.00 | 0.00 | 27 | 1010.8 |
| 20260831211545 | 40 | 144 | 17.7 | 29.0 | 0.00 | 0.00 | 0.00 | 25 | 1010.8 |
| 20260831211024 | 40 | 120 | 16.1 | 37.0 | 0.00 | 0.00 | 0.00 | 26 | 1010.8 |
| 20260831210525 | 40 | 115 | 20.9 | 37.0 | 0.00 | 0.00 | 0.00 | 26 | 1010.8 |
| 20260831210046 | 40 | 110 | 20.9 | 38.6 | 0.00 | 0.00 | 0.00 | 27 | 1010.8 |
| 20260831205525 | 40 | 97 | 27.4 | 38.6 | 0.00 | 0.00 | 0.00 | 26 | 1010.8 |
| 20260831205024 | 40 | 127 | 19.3 | 35.4 | 0.00 | 0.00 | 0.00 | 27 | 1010.8 |
| 20260831204549 | 39 | 110 | 20.9 | 35.4 | 0.00 | 0.00 | 0.00 | 28 | 1010.8 |
| 20260831204028 | 39 | 95 | 24.1 | 35.4 | 0.00 | 0.00 | 0.00 | 27 | 1010.9 |
| 20260831203523 | 39 | 111 | 19.3 | 35.4 | 0.00 | 0.00 | 0.00 | 27 | 1011.0 |
| 20260831203042 | 40 | 105 | 22.5 | 35.4 | 0.00 | 0.00 | 0.00 | 28 | 1011.0 |
| 20260831202527 | 40 | 130 | 19.3 | 33.8 | 0.00 | 0.00 | 0.00 | 27 | 1011.2 |
| 20260831202026 | 40 | 95 | 19.3 | 33.8 | 0.00 | 0.00 | 0.00 | 27 | 1011.2 |
| 20260831201551 | 40 | 134 | 12.9 | 32.2 | 0.00 | 0.00 | 0.00 | 27 | 1011.2 |
| 20260831201026 | 40 | 99 | 20.9 | 32.2 | 0.00 | 0.00 | 0.00 | 27 | 1011.3 |
| 20260831200525 | 40 | 114 | 19.3 | 30.6 | 0.00 | 0.00 | 0.00 | 28 | 1011.3 |
| 20260831200046 | 40 | 118 | 17.7 | 40.2 | 0.00 | 0.00 | 0.00 | 27 | 1011.3 |
| 20260831195524 | 40 | 110 | 17.7 | 40.2 | 0.00 | 0.00 | 0.00 | 27 | 1011.4 |
| 20260831195025 | 40 | 108 | 22.5 | 40.2 | 0.00 | 0.00 | 0.00 | 28 | 1011.5 |
| 20260831194546 | 40 | 117 | 20.9 | 33.8 | 0.00 | 0.00 | 0.00 | 28 | 1011.5 |
| 20260831194024 | 40 | 128 | 17.7 | 37.0 | 0.00 | 0.00 | 0.00 | 28 | 1011.5 |
| 20260831193526 | 40 | 114 | 22.5 | 37.0 | 0.00 | 0.00 | 0.00 | 29 | 1011.8 |
| 20260831193118 | 39 | 128 | 17.7 | 37.0 | 0.00 | 0.00 | 0.00 | 30 | 1011.7 |
| 20260831192524 | 39 | 157 | 19.3 | 37.0 | 0.00 | 0.00 | 0.00 | 29 | 1011.8 |
| 20260831192027 | 39 | 134 | 9.7 | 29.0 | 0.00 | 0.00 | 0.00 | 30 | 1011.8 |
| 20260831191545 | 39 | 118 | 17.7 | 37.0 | 0.00 | 0.00 | 0.00 | 29 | 1011.8 |
| 20260831191024 | 39 | 101 | 22.5 | 37.0 | 0.00 | 0.00 | 0.00 | 30 | 1011.9 |
| 20260831190527 | 39 | 170 | 11.3 | 33.8 | 0.00 | 0.00 | 0.00 | 30 | 1011.8 |
| 20260831190048 | 39 | 133 | 19.3 | 35.4 | 0.00 | 0.00 | 0.00 | 30 | 1012.0 |
| 20260831185525 | 39 | 122 | 17.7 | 35.4 | 0.00 | 0.00 | 0.00 | 29 | 1011.9 |
| 20260831185023 | 40 | 130 | 17.7 | 35.4 | 0.00 | 0.00 | 0.00 | 30 | 1012.0 |
| 20260831184550 | 39 | 96 | 19.3 | 35.4 | 0.00 | 0.00 | 0.00 | 31 | 1011.9 |
| 20260831184025 | 39 | 141 | 20.9 | 35.4 | 0.00 | 0.00 | 0.00 | 31 | 1012.0 |
| 20260831183525 | 38 | 165 | 17.7 | 30.6 | 0.00 | 0.00 | 0.00 | 31 | 1011.9 |
| 20260831183053 | 39 | 140 | 14.5 | 37.0 | 0.00 | 0.00 | 0.00 | 31 | 1012.0 |
| 20260831182527 | 39 | 144 | 17.7 | 37.0 | 0.00 | 0.00 | 0.00 | 31 | 1012.1 |
| 20260831182025 | 38 | 125 | 16.1 | 32.2 | 0.00 | 0.00 | 0.00 | 31 | 1012.1 |
| 20260831181557 | 39 | 107 | 16.1 | 29.0 | 0.00 | 0.00 | 0.00 | 33 | 1012.2 |
| 20260831181024 | 38 | 123 | 16.1 | 35.4 | 0.00 | 0.00 | 0.00 | 34 | 1012.3 |
| 20260831180525 | 38 | 101 | 17.7 | 37.0 | 0.00 | 0.00 | 0.00 | 35 | 1012.4 |
| 20260831180046 | 38 | 123 | 17.7 | 37.0 | 0.00 | 0.00 | 0.00 | 34 | 1012.4 |
| 20260831175524 | 37 | 183 | 14.5 | 33.8 | 0.00 | 0.00 | 0.00 | 35 | 1012.5 |
| 20260831175024 | 38 | 160 | 16.1 | 33.8 | 0.00 | 0.00 | 0.00 | 34 | 1012.7 |
| 20260831174548 | 38 | 135 | 19.3 | 30.6 | 0.00 | 0.00 | 0.00 | 35 | 1012.7 |
| 20260831174024 | 37 | 155 | 14.5 | 33.8 | 0.00 | 0.00 | 0.00 | 36 | 1012.8 |
| 20260831173525 | 37 | 163 | 14.5 | 35.4 | 0.00 | 0.00 | 0.00 | 36 | 1012.9 |
| 20260831173047 | 37 | 113 | 17.7 | 35.4 | 0.00 | 0.00 | 0.00 | 35 | 1012.9 |
| 20260831172524 | 37 | 123 | 17.7 | 32.2 | 0.00 | 0.00 | 0.00 | 37 | 1013.0 |
| 20260831172025 | 36 | 108 | 12.9 | 32.2 | 0.00 | 0.00 | 0.00 | 38 | 1013.0 |
| 20260831171544 | 36 | 121 | 17.7 | 32.2 | 0.00 | 0.00 | 0.00 | 37 | 1013.1 |
| 20260831171025 | 36 | 123 | 14.5 | 29.0 | 0.00 | 0.00 | 0.00 | 37 | 1013.0 |
| 20260831170524 | 36 | 150 | 20.9 | 29.0 | 0.00 | 0.00 | 0.00 | 37 | 1013.2 |
| 20260831170043 | 36 | 140 | 12.9 | 27.4 | 0.00 | 0.00 | 0.00 | 38 | 1013.1 |
| 20260831165525 | 36 | 113 | 14.5 | 32.2 | 0.00 | 0.00 | 0.00 | 39 | 1013.2 |
| 20260831165025 | 36 | 170 | 17.7 | 32.2 | 0.00 | 0.00 | 0.00 | 38 | 1013.2 |
| 20260831164605 | 35 | 138 | 17.7 | 32.2 | 0.00 | 0.00 | 0.00 | 38 | 1013.2 |
| 20260831164024 | 35 | 132 | 17.7 | 33.8 | 0.00 | 0.00 | 0.00 | 39 | 1013.2 |
| 20260831163525 | 35 | 111 | 19.3 | 33.8 | 0.00 | 0.00 | 0.00 | 39 | 1013.2 |
| 20260831163048 | 35 | 123 | 14.5 | 30.6 | 0.00 | 0.00 | 0.00 | 40 | 1013.3 |
| 20260831162523 | 35 | 139 | 20.9 | 30.6 | 0.00 | 0.00 | 0.00 | 40 | 1013.3 |
| 20260831162024 | 35 | 113 | 14.5 | 29.0 | 0.00 | 0.00 | 0.00 | 40 | 1013.3 |
| 20260831161600 | 35 | 165 | 12.9 | 29.0 | 0.00 | 0.00 | 0.00 | 40 | 1013.4 |
| 20260831161023 | 35 | 138 | 17.7 | 29.0 | 0.00 | 0.00 | 0.00 | 41 | 1013.4 |
| 20260831160526 | 35 | 126 | 17.7 | 27.4 | 0.00 | 0.00 | 0.00 | 41 | 1013.5 |
| 20260831160056 | 34 | 121 | 16.1 | 27.4 | 0.00 | 0.00 | 0.00 | 41 | 1013.5 |
| 20260831155524 | 34 | 130 | 17.7 | 27.4 | 0.00 | 0.00 | 0.00 | 42 | 1013.4 |
| 20260831155026 | 34 | 119 | 12.9 | 27.4 | 0.00 | 0.00 | 0.00 | 42 | 1013.5 |
| 20260831154613 | 33 | 126 | 12.9 | 29.0 | 0.00 | 0.00 | 0.00 | 43 | 1013.4 |
| 20260831154029 | 33 | 116 | 17.7 | 29.0 | 0.00 | 0.00 | 0.00 | 42 | 1013.4 |
| 20260831153525 | 33 | 140 | 12.9 | 29.0 | 0.00 | 0.00 | 0.00 | 43 | 1013.3 |
| 20260831153046 | 33 | 123 | 14.5 | 29.0 | 0.00 | 0.00 | 0.00 | 43 | 1013.3 |
| 20260831152528 | 33 | 167 | 16.1 | 27.4 | 0.00 | 0.00 | 0.00 | 43 | 1013.4 |
| 20260831152025 | 33 | 154 | 9.7 | 24.1 | 0.00 | 0.00 | 0.00 | 44 | 1013.4 |
| 20260831151546 | 33 | 132 | 12.9 | 24.1 | 0.00 | 0.00 | 0.00 | 44 | 1013.3 |
| 20260831151025 | 32 | 128 | 12.9 | 24.1 | 0.00 | 0.00 | 0.00 | 45 | 1013.4 |
| 20260831150524 | 32 | 132 | 11.3 | 27.4 | 0.00 | 0.00 | 0.00 | 45 | 1013.4 |
| 20260831150050 | 32 | 145 | 11.3 | 27.4 | 0.00 | 0.00 | 0.00 | 46 | 1013.4 |
| 20260831145524 | 32 | 131 | 12.9 | 25.7 | 0.00 | 0.00 | 0.00 | 46 | 1013.3 |
| 20260831145024 | 31 | 164 | 9.7 | 25.7 | 0.00 | 0.00 | 0.00 | 47 | 1013.3 |
| 20260831144544 | 31 | 143 | 12.9 | 24.1 | 0.00 | 0.00 | 0.00 | 48 | 1013.4 |
| 20260831144024 | 31 | 139 | 14.5 | 24.1 | 0.00 | 0.00 | 0.00 | 48 | 1013.4 |
| 20260831143523 | 30 | 127 | 9.7 | 19.3 | 0.00 | 0.00 | 0.00 | 50 | 1013.4 |
| 20260831143044 | 30 | 125 | 11.3 | 17.7 | 0.00 | 0.00 | 0.00 | 50 | 1013.4 |
| 20260831142527 | 30 | 149 | 9.7 | 17.7 | 0.00 | 0.00 | 0.00 | 51 | 1013.4 |
| 20260831142025 | 29 | 161 | 9.7 | 17.7 | 0.00 | 0.00 | 0.00 | 52 | 1013.4 |
| 20260831141550 | 29 | 150 | 8.0 | 19.3 | 0.00 | 0.00 | 0.00 | 53 | 1013.4 |
| 20260831141024 | 28 | 115 | 12.9 | 19.3 | 0.00 | 0.00 | 0.00 | 54 | 1013.2 |
| 20260831140525 | 28 | 120 | 11.3 | 19.3 | 0.00 | 0.00 | 0.00 | 55 | 1013.3 |
| 20260831140045 | 28 | 134 | 11.3 | 20.9 | 0.00 | 0.00 | 0.00 | 56 | 1013.3 |
| 20260831135525 | 27 | 136 | 14.5 | 20.9 | 0.00 | 0.00 | 0.00 | 57 | 1013.3 |
| 20260831135028 | 27 | 125 | 9.7 | 16.1 | 0.00 | 0.00 | 0.00 | 58 | 1013.3 |
| 20260831134548 | 26 | 117 | 11.3 | 20.9 | 0.00 | 0.00 | 0.00 | 60 | 1013.4 |
| 20260831134025 | 26 | 120 | 11.3 | 25.7 | 0.00 | 0.00 | 0.00 | 61 | 1013.3 |
| 20260831133522 | 26 | 107 | 16.1 | 25.7 | 0.00 | 0.00 | 0.00 | 61 | 1013.3 |
| 20260831133047 | 25 | 112 | 16.1 | 20.9 | 0.00 | 0.00 | 0.00 | 62 | 1013.2 |
| 20260831132524 | 25 | 103 | 11.3 | 19.3 | 0.00 | 0.00 | 0.00 | 63 | 1013.1 |